Printer-friendly version

IAU Minor Planet Center

Minor Planet Center

MPEC 2006-E27 : 2006 EF1

The following Minor Planet Electronic Circular may be linked-to from your own Web pages, but must not otherwise be redistributed electronically.


Read MPEC 2006-E26 Read MPEC 2006-E28


M.P.E.C. 2006-E27                                Issued 2006 Mar. 6, 20:52 UT

     The Minor Planet Electronic Circulars contain information on unusual
         minor planets and routine data on comets.  They are published
   on behalf of Commission 20 of the International Astronomical Union by the
          Minor Planet Center, Smithsonian Astrophysical Observatory,
                          Cambridge, MA 02138, U.S.A.

                  Supported in part by the Brinson Foundation
                  Supported in part by the TABASGO Foundation
             Prepared using the Tamkin Foundation Computer Network

                              MPC@CFA.HARVARD.EDU
          URL http://cfa-www.harvard.edu/iau/mpc.html  ISSN 1523-6714

                                   2006 EF1

Observations:
     K06E01F* C2006 03 05.28648 09 50 08.16 -06 36 00.2          20.7 V EE027G96
     K06E01F  C2006 03 05.29117 09 50 06.64 -06 36 11.7          20.8 V EE027G96
     K06E01F  C2006 03 05.29598 09 50 05.13 -06 36 25.9          20.6 V EE027G96
     K06E01F  C2006 03 05.30074 09 50 03.76 -06 36 38.9          21.2 V EE027G96
     K06E01F  C2006 03 05.31237 09 50 00.00 -06 37 10.5          20.8 V EE027G96
     K06E01F  C2006 03 05.31291 09 49 59.73 -06 37 12.4          21.0 V EE027G96
     K06E01F  C2006 03 05.31344 09 49 59.68 -06 37 13.1          21.5 V EE027G96
     K06E01F  C2006 03 05.31398 09 49 59.51 -06 37 14.9          20.9 V EE027G96
     K06E01F  C2006 03 06.35733 09 44 39.01 -07 25 03.5          20.9 V EE027G96
     K06E01F  C2006 03 06.35910 09 44 38.43 -07 25 08.3          21.0 V EE027G96
     K06E01F  C2006 03 06.36089 09 44 37.86 -07 25 13.4          21.1 V EE027G96
     K06E01F  C2006 03 06.36269 09 44 37.32 -07 25 18.1          20.9 V EE027G96

Observer details:
G96 Mt. Lemmon Survey.  Observers R. E. Hill, R. Hill.  Measurers
    E. C. Beshore, E. J. Christensen, G. J. Garradd, A. R. Gibbs, A. D. Grauer,
    R. E. Hill, R. A. Kowalski, S. M. Larson, R. H. McNaught.  1.5-m reflector
    + CCD.

Orbital elements:
2006 EF1                                                 Earth MOID = 0.0344 AU
Epoch 2006 Mar. 6.0 TT = JDT 2453800.5                  MPC
M 293.76410              (2000.0)            P               Q
n   0.67611393     Peri.  298.98581     +0.02067433     +0.98524020
a   1.2856501      Node   330.67403     -0.75328566     -0.09640036
e   0.3473637      Incl.   20.30039     -0.65736846     +0.14145216
P   1.46           H   22.3           G   0.15           U   9
Residuals in seconds of arc
060305 G96  0.1+  0.5-    060305 G96  0.1+  0.0     060306 G96  0.1+  0.0
060305 G96  0.5-  0.8+    060305 G96  1.4-  0.4-    060306 G96  0.2-  0.0
060305 G96  0.4-  0.2-    060305 G96  0.4+  0.4+    060306 G96  0.2-  0.1-
060305 G96  1.5+  0.2-    060305 G96  0.4+  0.0     060306 G96  0.3+  0.1+

Ephemeris:
2006 EF1                 a,e,i = 1.29, 0.35, 20                  q = 0.8391
Date    TT    R. A. (2000) Decl.     Delta      r     Elong.  Phase     V
2006 03 06    09 46.51   -07 08.3    0.282    1.255   156.4    18.4    21.0
2006 03 16    08 53.71   -14 39.8    0.269    1.201   135.1    35.8    21.3
2006 03 26    08 04.55   -20 58.9    0.278    1.145   115.4    51.9    21.7
2006 04 05    07 24.70   -25 43.3    0.298    1.089    99.2    65.1    22.2

Kyle E. Smalley              (C) Copyright 2006 MPC           M.P.E.C. 2006-E27

Read MPEC 2006-E26 Read MPEC 2006-E28


Our Web policy. Index to the CBAT/MPC/ICQ pages.


Valid HTML 4.01!